Regional Weather Roundup
Issued by NWS Green Bay, WI

Home | Current Version | Previous Version | Graphics & Text | Print | Product List | Glossary Off
Versions: 1 2 3 4 5 6 7 8 9 10 11 12 13 14 15 16 17 18 19 20 21 22 23 24 25 26 27 28 29 30 31 32 33 34 35 36 37 38 39 40 41 42 43 44 45 46 47 48 49 50

000
ASUS43 KGRB 251959
RWRGRB

NORTH-CENTRAL AND NORTHEAST WISCONSIN REGIONAL WEATHER ROUNDUP
NATIONAL WEATHER SERVICE GREEN BAY WI
200 PM CST THU DEC 25 2014

WIZ005-009-010>012-018-019-252100-
NORTH CENTRAL WISCONSIN

CITY           SKY/WX    TMP DP  RH WIND       PRES   REMARKS
IRONWOOD       CLOUDY    32  28  86 W10       29.70R
MANITOWISH WTR NOT AVBL
ARBOR VITAE    NOT AVBL
EAGLE RIVER    NOT AVBL
LAND O LAKES   NOT AVBL
RHINELANDER    CLOUDY    30  26  85 SW13      29.75R
PHILLIPS       CLOUDY    30  27  86 SW9       29.74R
ANTIGO         NOT AVBL
TOMAHAWK       NOT AVBL
MERRILL        NOT AVBL
$$

WIZ013-073-252100-
NORTHEAST WISCONSIN

CITY           SKY/WX    TMP DP  RH WIND       PRES   REMARKS
IRON MOUNTAIN  CLOUDY    34  29  82 SW9       29.75R
MARINETTE      CLOUDY    36  27  69 W10G20    29.80R
$$

WIZ017-030-035>037-045-252100-
CENTRAL WISCONSIN

CITY           SKY/WX    TMP DP  RH WIND       PRES   REMARKS
MEDFORD        NOT AVBL
WAUSAU         CLOUDY    32  27  81 SW8       29.78R
MOSINEE        CLOUDY    32  30  93 SW12      29.80S
MARSHFIELD     CLOUDY    34  28  79 SW9       29.79R
WISC RAPIDS    CLOUDY    34  27  75 S10       29.83R
STEVENS POINT  NOT AVBL
WAUPACA        NOT AVBL
SHAWANO        NOT AVBL
CLINTONVILLE   PTSUNNY   34  30  86 SW8       29.82S
$$

WIZ038-039-048-051-252100-
FOX VALLEY

CITY           SKY/WX    TMP DP  RH WIND       PRES   REMARKS
NWS GREEN BAY  PTSUNNY   36  30  79 SW10      29.84R
APPLETON       PTSUNNY   36  28  75 SW13      29.84R
OSHKOSH        CLOUDY    36  29  75 SW10      29.85S
FOND DU LAC    CLOUDY    37  29  72 S16G23    29.85S
$$

WIZ022-050-052-252100-
EAST CENTRAL WISCONSIN

CITY           SKY/WX    TMP DP  RH WIND       PRES   REMARKS
STURGEON BAY   CLOUDY    34  27  75 SW15      29.84R
MANITOWOC      NOT AVBL
SHEBOYGAN      CLOUDY    37  30  75 SW10      29.87R
$$

LMZ563-521-522-541>543-252100-
LAKESHORE

STATION/POSITION TIME  TEMP    WIND        PRES    VSBY  WAVE
                       AIR SEA DIR/SP/G                  HT/PER
                 (UTC) (F)     (DEG/KT/KT) (MB)    (MI)  (FT/S)
SHEBOYGAN LKSHOR 1900   36 37  220/ 15/ 17 1011.9R
KEWAUNEE LKSHORE 1900   35     240/ 10/ 15 1009.6R
ALGOMA MARINA    1900          260/ 15/ 22   N/A
NORTHPORT PIER   1900   35     230/  7/ 22 1008.8R
SISTER BAY LKSHO 1900          230/ 18/ 22   N/A
STURGEON BAY CG  1900   35     250/  9     1005.6      6   1
CHAMBERS ISLAND  1900   35     210/  9/ 17 1009.5R
MENOMINEE LKSHOR 1900   36     210/ 15/ 21 1010.2R
$$



USA.gov is the U.S. government's official web portal to all federal, state and local government web resources and services.